Regional Weather Roundup
Issued by NWS Cleveland, OH

Home | Current Version | Previous Version | Graphics & Text | Print | Product List | Glossary On
Versions: 1 2 3 4 5 6 7 8 9 10 11 12 13 14 15 16 17 18 19 20 21 22 23 24 25 26 27 28 29 30 31 32 33 34 35 36 37 38 39 40 41 42 43 44 45 46 47 48 49 50
000
ASUS41 KCLE 200002
RWRCLE
OHIO REGIONAL WEATHER ROUNDUP
NATIONAL WEATHER SERVICE CLEVELAND, OH
800 PM EDT SUN APR 19 2015

NOTE: "FAIR" INDICATES FEW OR NO CLOUDS BELOW 12,000 FEET WITH NO
SIGNIFICANT WEATHER AND/OR OBSTRUCTIONS TO VISIBILITY.

OHZ001>008-015>018-024>027-034-035-043-044-200100-
   NORTHWEST OHIO

CITY           SKY/WX    TMP DP  RH WIND       PRES   REMARKS
DEFIANCE       LGT RAIN  52  50  93 E15       29.49F FOG
FINDLAY        HVY RAIN  58  55  90 E20G29    29.50F FOG
TOLEDO EXPRESS HVY RAIN  46  45  96 NE10      29.54F FOG
TOLEDO EXEC    RAIN      47  43  86 NE9       29.58F FOG
LIMA           LGT RAIN  59  57  93 SE16G33   29.47F FOG
$$

OHZ009>014-019>023-028>033-038-089-200100-
   NORTHEAST OHIO

CITY           SKY/WX    TMP DP  RH WIND       PRES   REMARKS
CLE-HOPKINS    RAIN      57  51  80 SE24G36   29.69F
CLE-LAKEFRONT  CLOUDY    61  47  59 SE23G39   29.68F
CUY CO. ARPT   CLOUDY    63  50  63 SE17G29   29.71F
LORAIN-ELYRIA  LGT RAIN  57  52  83 SE20G32   29.65F
ASHTABULA      LGT RAIN  59  46  62 SE18G25   29.77F
AKRON-CANTON   CLOUDY    55  50  83 SE23G30   29.70F
WOOSTER        LGT RAIN  55  51  86 SE20G29   29.67F FOG
MANSFIELD      LGT RAIN  56  54  93 E26G37    29.61F FOG
YOUNGSTOWN     CLOUDY    58  47  66 SE21G31   29.75F
$$

OHZ042-051>053-060>062-070>072-077>081-200100-
  SOUTHWEST OHIO

CITY           SKY/WX    TMP DP  RH WIND       PRES   REMARKS
CINC-COVINGTON LGT RAIN  66  62  87 S9        29.46F
CINC-LUNKEN    RAIN      64  63  96 S9        29.47S FOG
HAMILTON       LGT RAIN  66  63  90 SE8       29.47S
DAYTON         LGT RAIN  63  61  93 SE23G33   29.46F
WRIGHT-PAT AFB NOT AVBL
DAYTON GENERAL CLOUDY    64  61  90 S14       29.48S
WILMINGTON     CLOUDY    63  59  87 SE17G25   29.49F
$$

OHZ036-037-039>041-045>050-054>059-063>069-073>076-082>088-200100-
  CENTRAL AND SOUTHEAST OHIO

CITY           SKY/WX    TMP DP  RH WIND       PRES   REMARKS
COLUMBUS       RAIN      58  55  90 SE14G23   29.58F FOG
OSU AIRPORT    LGT RAIN  58  54  86 SE22G29   29.55F FOG
BOLTON FIELD   NOT AVBL
RICKENBACK AFB NOT AVBL
NEWARK         CLOUDY    59  54  83 E15G26    29.60F
MARION         CLOUDY    58  53  84 SE22G36   29.56F
LANCASTER      CLOUDY    59  54  83 SE20G31   29.57F
ZANESVILLE     CLOUDY    58  51  78 SE16G26   29.64F
NEW PHILLY     CLOUDY    58  51  78 SE16G28   29.69F
$$



USA.gov is the U.S. government's official web portal to all federal, state and local government web resources and services.